Tracking 19634 objects as of 21-May-2019
HD Live streaming from Space Station
objects crossing your sky now

OPS 6630 (2)

Track OPS 6630 (2) now!
10-day predictions
OPS 6630 (2) is classified as:


NORAD ID: 6938
Int'l Code: 1973-088D
Perigee: 1,420.6 km
Apogee: 1,463.7 km
Inclination: 96.9 °
Period: 114.6 minutes
Semi major axis: 7813 km
RCS: 0.3492 m2 (medium)
Launch date: November 10, 1973
Source: United States (US)
Launch site: AIR FORCE WESTERN TEST RANGE (AFWTR)
aabbcc
Your satellite tracking list
Your tracking list is empty




NASA's NSSDC Master Catalog

Two Line Element Set (TLE):
1  6938U 73088D   19140.97205007 -.00000007 +00000-0 +69466-4 0  9990
2  6938 096.9235 149.1293 0027563 124.4514 250.5798 12.57084829088430
Source of the keplerian elements: AFSPC